Volver al catálogo

STARLINK-38046

ActivoComunicacionesSSO
NORAD 69746·PAYLOAD·🇺🇸 United States

Lanzado Jul 2, 2026 desde Vandenberg Space Force Base

Loading…

Próximos Pases (próximas 24 horas)

TLE

ActualizadoSource: CelesTrak SupGP

Época: Sep 15, 2026, 04:02 UTC

1 69746C 26150H   26258.16854167 -.00048872  00000+0 -15168-2 0  2588
2 69746  97.2851  97.2420 0001978  93.4839 259.2837 15.33469909    17

Sigue STARLINK-38046 en tiempo real con AllMySat

Download on the App Store